Time,TemperatureF,DewpointF,PressureIn,WindDirection,WindDirectionDegrees,WindSpeedMPH,WindSpeedGustMPH,Humidity,HourlyPrecipIn,Conditions,Clouds,dailyrainin,SoftwareType,DateUTC
2013-10-09 00:01:00,51.5,44.2,29.67,WNW,293,0.0,0.0,76,0.00,,,0.00,WUHU216HW,2013-10-09 04:01:00,
2013-10-09 00:06:00,51.5,44.2,29.67,WNW,293,0.0,0.0,76,0.00,,,0.00,WUHU216HW,2013-10-09 04:06:00,
2013-10-09 00:11:00,51.3,44.0,29.67,WNW,293,0.0,0.0,76,0.00,,,0.00,WUHU216HW,2013-10-09 04:11:00,
2013-10-09 00:16:00,51.1,43.8,29.67,WNW,293,0.0,0.0,76,0.00,,,0.00,WUHU216HW,2013-10-09 04:16:00,
2013-10-09 00:21:00,51.1,43.8,29.67,WNW,293,0.0,0.0,76,0.00,,,0.00,WUHU216HW,2013-10-09 04:21:00,
2013-10-09 00:26:00,50.9,43.7,29.67,WNW,293,0.0,0.0,76,0.00,,,0.00,WUHU216HW,2013-10-09 04:26:00,
2013-10-09 00:31:00,50.8,43.8,29.67,WNW,293,0.0,0.0,77,0.00,,,0.00,WUHU216HW,2013-10-09 04:31:00,
2013-10-09 00:36:00,50.8,43.5,29.67,WNW,293,0.0,0.0,76,0.00,,,0.00,WUHU216HW,2013-10-09 04:36:00,
2013-10-09 00:41:00,50.8,43.8,29.67,WNW,293,0.0,0.0,77,0.00,,,0.00,WUHU216HW,2013-10-09 04:41:00,
2013-10-09 00:46:00,50.8,43.8,29.67,WNW,293,0.0,0.0,77,0.00,,,0.00,WUHU216HW,2013-10-09 04:46:00,
2013-10-09 00:51:00,50.8,43.8,29.67,WNW,293,0.0,0.0,77,0.00,,,0.00,WUHU216HW,2013-10-09 04:51:00,
2013-10-09 00:56:00,50.8,43.8,29.67,WNW,293,0.0,0.0,77,0.00,,,0.00,WUHU216HW,2013-10-09 04:56:00,
2013-10-09 01:01:00,50.8,43.8,29.67,WNW,293,0.0,0.0,77,0.00,,,0.00,WUHU216HW,2013-10-09 05:01:00,
2013-10-09 01:06:00,50.6,43.7,29.67,WNW,293,0.0,0.0,77,0.00,,,0.00,WUHU216HW,2013-10-09 05:06:00,
2013-10-09 01:11:00,50.6,43.7,29.67,WNW,293,0.0,0.0,77,0.00,,,0.00,WUHU216HW,2013-10-09 05:11:00,
2013-10-09 01:16:00,50.4,43.7,29.67,WNW,293,0.0,0.0,78,0.00,,,0.00,WUHU216HW,2013-10-09 05:16:00,
2013-10-09 01:21:00,50.4,43.5,29.67,WNW,293,0.0,0.0,77,0.00,,,0.00,WUHU216HW,2013-10-09 05:21:00,
2013-10-09 01:26:00,50.4,43.7,29.67,WNW,293,0.0,0.0,78,0.00,,,0.00,WUHU216HW,2013-10-09 05:26:00,
2013-10-09 01:31:00,50.2,43.6,29.67,WNW,293,0.0,0.0,78,0.00,,,0.00,WUHU216HW,2013-10-09 05:31:00,
2013-10-09 01:36:00,50.0,43.4,29.67,WNW,293,0.0,0.0,78,0.00,,,0.00,WUHU216HW,2013-10-09 05:36:00,
2013-10-09 01:41:00,50.0,43.4,29.67,WNW,293,0.0,0.0,78,0.00,,,0.00,WUHU216HW,2013-10-09 05:41:00,
2013-10-09 01:46:00,50.0,43.4,29.67,WNW,293,0.0,0.0,78,0.00,,,0.00,WUHU216HW,2013-10-09 05:46:00,
2013-10-09 01:51:00,49.9,43.2,29.67,WNW,293,0.0,0.0,78,0.00,,,0.00,WUHU216HW,2013-10-09 05:51:00,
2013-10-09 01:56:00,49.9,43.2,29.67,WNW,293,0.0,0.0,78,0.00,,,0.00,WUHU216HW,2013-10-09 05:56:00,
2013-10-09 02:01:00,49.9,43.2,29.67,WNW,293,0.0,0.0,78,0.00,,,0.00,WUHU216HW,2013-10-09 06:01:00,
2013-10-09 02:06:00,49.7,43.0,29.67,WNW,293,0.0,0.0,78,0.00,,,0.00,WUHU216HW,2013-10-09 06:06:00,
2013-10-09 02:11:00,49.5,43.2,29.68,WNW,293,0.0,0.0,79,0.00,,,0.00,WUHU216HW,2013-10-09 06:11:00,
2013-10-09 02:16:00,49.3,43.0,29.68,WNW,293,0.0,0.0,79,0.00,,,0.00,WUHU216HW,2013-10-09 06:16:00,
2013-10-09 02:21:00,49.3,43.0,29.68,WNW,293,0.0,0.0,79,0.00,,,0.00,WUHU216HW,2013-10-09 06:21:00,
2013-10-09 02:26:00,49.3,43.0,29.68,WNW,293,0.0,0.0,79,0.00,,,0.00,WUHU216HW,2013-10-09 06:26:00,
2013-10-09 02:31:00,49.3,43.0,29.68,WNW,293,0.0,0.0,79,0.00,,,0.00,WUHU216HW,2013-10-09 06:31:00,
2013-10-09 02:36:00,49.3,43.4,29.68,WNW,293,0.0,0.0,80,0.00,,,0.00,WUHU216HW,2013-10-09 06:36:00,
2013-10-09 02:41:00,49.3,43.4,29.67,WNW,293,0.0,0.0,80,0.00,,,0.00,WUHU216HW,2013-10-09 06:41:00,
2013-10-09 02:46:00,49.1,43.2,29.67,WNW,293,0.0,0.0,80,0.00,,,0.00,WUHU216HW,2013-10-09 06:46:00,
2013-10-09 02:51:00,49.1,43.2,29.67,WNW,293,0.0,0.0,80,0.00,,,0.00,WUHU216HW,2013-10-09 06:51:00,
2013-10-09 02:56:00,49.0,43.0,29.66,WNW,293,0.0,0.0,80,0.00,,,0.00,WUHU216HW,2013-10-09 06:56:00,
2013-10-09 03:01:00,49.0,43.4,29.66,WNW,293,0.0,0.0,81,0.00,,,0.00,WUHU216HW,2013-10-09 07:01:00,
2013-10-09 03:06:00,49.0,43.4,29.66,ESE,113,0.5,0.6,81,0.00,,,0.00,WUHU216HW,2013-10-09 07:06:00,
2013-10-09 03:11:00,49.0,43.0,29.66,ESE,113,0.0,0.6,80,0.00,,,0.00,WUHU216HW,2013-10-09 07:11:00,
2013-10-09 03:16:00,48.8,43.2,29.66,ESE,113,0.0,0.0,81,0.00,,,0.00,WUHU216HW,2013-10-09 07:16:00,
2013-10-09 03:21:00,48.8,43.2,29.66,ESE,113,0.0,0.0,81,0.00,,,0.00,WUHU216HW,2013-10-09 07:21:00,
2013-10-09 03:26:00,48.8,43.2,29.66,ESE,113,0.0,0.0,81,0.00,,,0.00,WUHU216HW,2013-10-09 07:26:00,
2013-10-09 03:31:00,48.8,43.5,29.66,ESE,113,0.0,0.0,82,0.00,,,0.00,WUHU216HW,2013-10-09 07:31:00,
2013-10-09 03:36:00,49.0,43.4,29.66,ESE,113,0.0,0.0,81,0.00,,,0.00,WUHU216HW,2013-10-09 07:36:00,
2013-10-09 03:41:00,49.0,43.7,29.66,SE,135,0.9,1.3,82,0.00,,,0.00,WUHU216HW,2013-10-09 07:41:00,
2013-10-09 03:46:00,49.0,43.7,29.66,SE,135,0.0,1.3,82,0.00,,,0.00,WUHU216HW,2013-10-09 07:46:00,
2013-10-09 03:51:00,49.0,43.7,29.66,NW,315,0.6,0.6,82,0.00,,,0.00,WUHU216HW,2013-10-09 07:51:00,
2013-10-09 03:56:00,49.0,43.7,29.66,NW,315,0.0,0.6,82,0.00,,,0.00,WUHU216HW,2013-10-09 07:56:00,
2013-10-09 04:01:00,49.0,43.7,29.66,NW,315,0.0,0.6,82,0.00,,,0.00,WUHU216HW,2013-10-09 08:01:00,
2013-10-09 04:06:00,49.0,43.7,29.66,ESE,112,0.4,0.6,82,0.00,,,0.00,WUHU216HW,2013-10-09 08:06:00,
2013-10-09 04:11:00,49.0,43.4,29.66,ESE,113,0.3,0.6,81,0.00,,,0.00,WUHU216HW,2013-10-09 08:11:00,
2013-10-09 04:16:00,49.0,43.7,29.66,ESE,113,0.0,0.3,82,0.00,,,0.00,WUHU216HW,2013-10-09 08:16:00,
2013-10-09 04:21:00,49.0,43.7,29.66,ESE,113,0.0,0.0,82,0.00,,,0.00,WUHU216HW,2013-10-09 08:21:00,
2013-10-09 04:26:00,48.8,43.5,29.66,ESE,113,0.0,0.0,82,0.00,,,0.00,WUHU216HW,2013-10-09 08:26:00,
2013-10-09 04:31:00,48.8,43.5,29.66,ESE,113,0.0,0.0,82,0.00,,,0.00,WUHU216HW,2013-10-09 08:31:00,
2013-10-09 04:36:00,48.8,43.5,29.66,ESE,113,0.0,0.0,82,0.00,,,0.00,WUHU216HW,2013-10-09 08:36:00,
2013-10-09 04:41:00,48.8,43.5,29.67,ESE,113,0.0,0.0,82,0.00,,,0.00,WUHU216HW,2013-10-09 08:41:00,
2013-10-09 04:46:00,48.6,43.3,29.67,ESE,113,0.0,0.0,82,0.00,,,0.00,WUHU216HW,2013-10-09 08:46:00,
2013-10-09 04:51:00,48.6,43.3,29.67,ESE,113,0.0,0.0,82,0.00,,,0.00,WUHU216HW,2013-10-09 08:51:00,
2013-10-09 04:56:00,48.6,43.3,29.67,ESE,113,0.0,0.0,82,0.00,,,0.00,WUHU216HW,2013-10-09 08:56:00,
2013-10-09 05:01:00,48.4,43.1,29.66,ESE,113,0.0,0.0,82,0.00,,,0.00,WUHU216HW,2013-10-09 09:01:00,
2013-10-09 05:06:00,48.2,42.7,29.66,ESE,113,0.0,0.0,81,0.00,,,0.00,WUHU216HW,2013-10-09 09:06:00,
2013-10-09 05:11:00,48.1,42.5,29.67,ESE,113,0.3,0.3,81,0.00,,,0.00,WUHU216HW,2013-10-09 09:11:00,
2013-10-09 05:16:00,47.9,42.3,29.67,ESE,113,0.3,0.6,81,0.00,,,0.00,WUHU216HW,2013-10-09 09:16:00,
2013-10-09 05:21:00,47.9,42.3,29.68,ESE,113,0.0,0.6,81,0.00,,,0.00,WUHU216HW,2013-10-09 09:21:00,
2013-10-09 05:26:00,47.7,42.5,29.69,ESE,113,0.0,0.0,82,0.00,,,0.00,WUHU216HW,2013-10-09 09:26:00,
2013-10-09 05:31:00,47.9,42.9,29.69,NNW,338,0.4,0.6,83,0.00,,,0.00,WUHU216HW,2013-10-09 09:31:00,
2013-10-09 05:36:00,47.9,42.7,29.69,ESE,113,0.4,0.6,82,0.00,,,0.00,WUHU216HW,2013-10-09 09:36:00,
2013-10-09 05:41:00,47.7,42.8,29.69,ESE,113,0.0,0.6,83,0.00,,,0.00,WUHU216HW,2013-10-09 09:41:00,
2013-10-09 05:46:00,47.5,42.3,29.70,ESE,113,0.3,0.6,82,0.00,,,0.00,WUHU216HW,2013-10-09 09:46:00,
2013-10-09 05:51:00,47.2,41.9,29.69,East,90,0.0,0.6,82,0.00,,,0.00,WUHU216HW,2013-10-09 09:51:00,
2013-10-09 05:56:00,47.0,41.8,29.69,North,0,0.0,0.0,82,0.00,,,0.00,WUHU216HW,2013-10-09 09:56:00,
2013-10-09 06:01:00,46.8,42.0,29.69,North,0,0.0,0.0,83,0.00,,,0.00,WUHU216HW,2013-10-09 10:01:00,
2013-10-09 06:06:00,46.8,42.0,29.68,ESE,113,0.6,0.6,83,0.00,,,0.00,WUHU216HW,2013-10-09 10:06:00,
2013-10-09 06:11:00,46.8,42.0,29.68,NE,45,0.0,0.6,83,0.00,,,0.00,WUHU216HW,2013-10-09 10:11:00,
2013-10-09 06:16:00,46.6,41.8,29.68,East,90,0.3,0.3,83,0.00,,,0.00,WUHU216HW,2013-10-09 10:16:00,
2013-10-09 06:21:00,46.8,42.0,29.68,SE,135,0.0,0.6,83,0.00,,,0.00,WUHU216HW,2013-10-09 10:21:00,
2013-10-09 06:26:00,46.6,41.8,29.68,SE,135,0.0,0.6,83,0.00,,,0.00,WUHU216HW,2013-10-09 10:26:00,
2013-10-09 06:31:00,46.6,41.8,29.68,NE,45,0.0,0.6,83,0.00,,,0.00,WUHU216HW,2013-10-09 10:31:00,
2013-10-09 06:36:00,46.8,42.2,29.68,NE,45,0.3,0.3,84,0.00,,,0.00,WUHU216HW,2013-10-09 10:36:00,
2013-10-09 06:41:00,46.8,42.2,29.68,East,90,0.0,0.3,84,0.00,,,0.00,WUHU216HW,2013-10-09 10:41:00,
2013-10-09 06:46:00,46.8,42.2,29.68,East,90,0.0,0.3,84,0.00,,,0.00,WUHU216HW,2013-10-09 10:46:00,
2013-10-09 06:51:00,47.0,42.4,29.68,East,90,0.6,0.6,84,0.00,,,0.00,WUHU216HW,2013-10-09 10:51:00,
2013-10-09 06:56:00,47.2,42.6,29.68,SE,135,1.0,1.0,84,0.00,,,0.00,WUHU216HW,2013-10-09 10:56:00,
2013-10-09 07:01:00,47.2,42.6,29.68,SE,135,0.6,1.0,84,0.00,,,0.00,WUHU216HW,2013-10-09 11:01:00,
2013-10-09 07:06:00,47.2,42.6,29.68,SE,135,0.0,1.0,84,0.00,,,0.00,WUHU216HW,2013-10-09 11:06:00,
2013-10-09 07:11:00,47.0,42.4,29.68,SE,135,0.0,0.0,84,0.00,,,0.00,WUHU216HW,2013-10-09 11:11:00,
2013-10-09 07:16:00,47.0,42.4,29.69,SE,135,0.0,0.6,84,0.00,,,0.00,WUHU216HW,2013-10-09 11:16:00,
2013-10-09 07:21:00,47.0,42.4,29.69,SE,135,0.0,0.6,84,0.00,,,0.00,WUHU216HW,2013-10-09 11:21:00,
2013-10-09 07:26:00,47.0,42.4,29.69,SSE,158,0.6,0.6,84,0.00,,,0.00,WUHU216HW,2013-10-09 11:26:00,
2013-10-09 07:31:00,47.0,42.4,29.69,SSE,158,0.0,0.6,84,0.00,,,0.00,WUHU216HW,2013-10-09 11:31:00,
2013-10-09 07:36:00,46.8,42.2,29.70,SE,135,0.4,0.6,84,0.00,,,0.00,WUHU216HW,2013-10-09 11:36:00,
2013-10-09 07:41:00,46.6,42.0,29.70,SE,135,0.3,0.6,84,0.00,,,0.00,WUHU216HW,2013-10-09 11:41:00,
2013-10-09 07:46:00,46.4,42.0,29.70,SE,135,0.0,0.3,84,0.00,,,0.00,WUHU216HW,2013-10-09 11:46:00,
2013-10-09 07:51:00,46.4,42.0,29.70,NE,45,0.0,0.0,84,0.00,,,0.00,WUHU216HW,2013-10-09 11:51:00,
2013-10-09 07:56:00,46.4,42.2,29.70,NE,45,0.0,0.0,85,0.00,,,0.00,WUHU216HW,2013-10-09 11:56:00,
2013-10-09 08:01:00,46.6,42.4,29.70,NE,45,0.0,0.0,85,0.00,,,0.00,WUHU216HW,2013-10-09 12:01:00,
2013-10-09 08:03:00,46.8,42.6,29.71,NE,45,0.0,0.0,85,0.00,,,0.00,WUHU216HW,2013-10-09 12:03:00,
2013-10-09 08:08:00,46.8,42.6,29.71,NE,45,0.0,0.0,85,0.00,,,0.00,WUHU216HW,2013-10-09 12:08:00,
2013-10-09 08:13:00,47.0,42.8,29.71,NE,45,0.0,0.0,85,0.00,,,0.00,WUHU216HW,2013-10-09 12:13:00,
2013-10-09 08:18:00,47.2,42.9,29.71,SE,135,0.6,1.0,85,0.00,,,0.00,WUHU216HW,2013-10-09 12:18:00,
2013-10-09 08:23:00,47.3,43.0,29.72,SE,135,0.3,1.0,85,0.00,,,0.00,WUHU216HW,2013-10-09 12:23:00,
2013-10-09 08:28:00,47.5,43.2,29.71,SE,135,0.0,0.3,85,0.00,,,0.00,WUHU216HW,2013-10-09 12:28:00,
2013-10-09 08:33:00,47.9,43.6,29.72,East,90,0.3,0.3,85,0.00,,,0.00,WUHU216HW,2013-10-09 12:33:00,
2013-10-09 08:38:00,48.1,43.7,29.71,South,185,0.9,1.0,85,0.00,,,0.00,WUHU216HW,2013-10-09 12:38:00,
2013-10-09 08:43:00,48.4,44.1,29.72,SSE,158,1.0,1.0,85,0.00,,,0.00,WUHU216HW,2013-10-09 12:43:00,
2013-10-09 08:48:00,49.3,44.7,29.72,North,0,0.6,1.3,84,0.00,,,0.00,WUHU216HW,2013-10-09 12:48:00,
2013-10-09 08:53:00,50.0,45.4,29.71,NNW,339,0.5,2.4,84,0.00,,,0.00,WUHU216HW,2013-10-09 12:53:00,
2013-10-09 08:58:00,50.4,45.1,29.72,NE,54,0.7,2.4,82,0.00,,,0.00,WUHU216HW,2013-10-09 12:58:00,
2013-10-09 09:03:00,51.1,45.5,29.72,SSE,158,0.4,1.7,81,0.00,,,0.00,WUHU216HW,2013-10-09 13:03:00,
2013-10-09 09:08:00,51.5,45.5,29.72,NW,322,1.2,1.7,80,0.00,,,0.00,WUHU216HW,2013-10-09 13:08:00,
2013-10-09 09:13:00,51.7,45.0,29.72,ESE,113,0.6,1.7,78,0.00,,,0.00,WUHU216HW,2013-10-09 13:13:00,
2013-10-09 09:18:00,51.8,45.2,29.72,ESE,106,0.5,1.7,78,0.00,,,0.00,WUHU216HW,2013-10-09 13:18:00,
2013-10-09 09:23:00,52.0,45.1,29.72,SSE,158,0.6,1.3,77,0.00,,,0.00,WUHU216HW,2013-10-09 13:23:00,
2013-10-09 09:28:00,52.2,45.2,29.72,ENE,68,0.3,0.6,77,0.00,,,0.00,WUHU216HW,2013-10-09 13:28:00,
2013-10-09 09:33:00,52.2,44.9,29.72,North,0,0.5,1.7,76,0.00,,,0.00,WUHU216HW,2013-10-09 13:33:00,
2013-10-09 09:38:00,52.4,45.1,29.72,SE,136,1.4,1.7,76,0.00,,,0.00,WUHU216HW,2013-10-09 13:38:00,
2013-10-09 09:43:00,52.4,44.7,29.71,ENE,72,0.5,1.7,75,0.00,,,0.00,WUHU216HW,2013-10-09 13:43:00,
2013-10-09 09:48:00,52.6,44.9,29.71,NE,55,0.4,1.0,75,0.00,,,0.00,WUHU216HW,2013-10-09 13:48:00,
2013-10-09 09:53:00,52.6,44.9,29.71,ESE,105,0.5,0.6,75,0.00,,,0.00,WUHU216HW,2013-10-09 13:53:00,
2013-10-09 09:58:00,52.9,44.8,29.72,NW,318,0.6,1.0,74,0.00,,,0.00,WUHU216HW,2013-10-09 13:58:00,
2013-10-09 10:03:00,53.3,45.2,29.72,East,90,0.6,1.3,74,0.00,,,0.00,WUHU216HW,2013-10-09 14:03:00,
2013-10-09 10:08:00,53.5,45.4,29.71,East,90,0.6,1.3,74,0.00,,,0.00,WUHU216HW,2013-10-09 14:08:00,
2013-10-09 10:13:00,53.6,45.5,29.72,NE,45,0.5,1.3,74,0.00,,,0.00,WUHU216HW,2013-10-09 14:13:00,
2013-10-09 10:18:00,53.8,45.7,29.72,SE,135,2.2,2.7,74,0.00,,,0.00,WUHU216HW,2013-10-09 14:18:00,
2013-10-09 10:23:00,54.0,45.6,29.72,SSE,152,0.8,2.7,73,0.00,,,0.00,WUHU216HW,2013-10-09 14:23:00,
2013-10-09 10:28:00,54.2,45.7,29.72,NNW,338,0.3,1.7,73,0.00,,,0.00,WUHU216HW,2013-10-09 14:28:00,
2013-10-09 10:33:00,54.2,45.7,29.72,WNW,293,1.0,1.7,73,0.00,,,0.00,WUHU216HW,2013-10-09 14:33:00,
2013-10-09 10:38:00,54.2,45.4,29.72,NNE,15,0.5,1.7,72,0.00,,,0.00,WUHU216HW,2013-10-09 14:38:00,
2013-10-09 10:43:00,54.4,45.9,29.72,NNW,338,0.3,1.0,73,0.00,,,0.00,WUHU216HW,2013-10-09 14:43:00,
2013-10-09 10:48:00,54.5,46.1,29.72,NW,315,0.0,0.6,73,0.00,,,0.00,WUHU216HW,2013-10-09 14:48:00,
2013-10-09 10:53:00,54.5,45.4,29.73,NW,315,1.3,1.3,71,0.00,,,0.00,WUHU216HW,2013-10-09 14:53:00,
2013-10-09 10:58:00,54.5,45.7,29.72,North,0,0.3,1.3,72,0.00,,,0.00,WUHU216HW,2013-10-09 14:58:00,
2013-10-09 11:03:00,54.7,45.9,29.73,ESE,113,0.6,1.3,72,0.00,,,0.00,WUHU216HW,2013-10-09 15:03:00,
2013-10-09 11:08:00,54.9,46.5,29.73,ENE,74,0.4,1.3,73,0.00,,,0.00,WUHU216HW,2013-10-09 15:08:00,
2013-10-09 11:13:00,55.1,46.3,29.73,SSE,154,0.9,1.7,72,0.00,,,0.00,WUHU216HW,2013-10-09 15:13:00,
2013-10-09 11:18:00,55.3,46.5,29.73,NNW,338,0.0,1.7,72,0.00,,,0.00,WUHU216HW,2013-10-09 15:18:00,
2013-10-09 11:23:00,55.6,46.5,29.72,East,88,0.6,0.6,71,0.00,,,0.00,WUHU216HW,2013-10-09 15:23:00,
2013-10-09 11:28:00,56.2,47.3,29.72,ESE,121,1.0,2.7,72,0.00,,,0.00,WUHU216HW,2013-10-09 15:28:00,
2013-10-09 11:33:00,56.3,47.1,29.72,North,0,0.6,2.7,71,0.00,,,0.00,WUHU216HW,2013-10-09 15:33:00,
2013-10-09 11:38:00,56.5,47.3,29.72,SSE,158,2.4,2.4,71,0.00,,,0.00,WUHU216HW,2013-10-09 15:38:00,
2013-10-09 11:43:00,56.9,47.5,29.72,NE,45,0.6,2.4,71,0.00,,,0.00,WUHU216HW,2013-10-09 15:43:00,
2013-10-09 11:48:00,56.9,47.2,29.72,NE,45,0.3,1.9,70,0.00,,,0.00,WUHU216HW,2013-10-09 15:48:00,
2013-10-09 11:53:00,57.2,47.5,29.72,South,183,2.0,2.7,70,0.00,,,0.00,WUHU216HW,2013-10-09 15:53:00,
2013-10-09 11:58:00,57.2,47.5,29.72,SE,135,0.3,2.7,70,0.00,,,0.00,WUHU216HW,2013-10-09 15:58:00,
2013-10-09 12:03:00,57.2,47.2,29.72,East,95,0.6,2.4,69,0.00,,,0.00,WUHU216HW,2013-10-09 16:03:00,
2013-10-09 12:08:00,57.2,47.5,29.72,NNE,23,0.0,1.7,70,0.00,,,0.00,WUHU216HW,2013-10-09 16:08:00,
2013-10-09 12:13:00,57.4,47.4,29.72,NE,45,0.0,1.0,69,0.00,,,0.00,WUHU216HW,2013-10-09 16:13:00,
2013-10-09 12:18:00,57.6,47.5,29.71,SE,124,1.0,1.7,69,0.00,,,0.00,WUHU216HW,2013-10-09 16:18:00,
2013-10-09 12:23:00,57.8,47.7,29.71,ESE,113,0.6,1.7,69,0.00,,,0.00,WUHU216HW,2013-10-09 16:23:00,
2013-10-09 12:28:00,58.0,47.9,29.71,NNE,23,2.7,2.7,69,0.00,,,0.00,WUHU216HW,2013-10-09 16:28:00,
2013-10-09 12:33:00,58.0,47.9,29.71,NE,55,1.2,2.7,69,0.00,,,0.00,WUHU216HW,2013-10-09 16:33:00,
2013-10-09 12:38:00,58.0,47.4,29.71,SE,135,0.6,2.7,68,0.00,,,0.00,WUHU216HW,2013-10-09 16:38:00,
2013-10-09 12:43:00,58.3,47.8,29.70,SE,129,1.0,1.9,68,0.00,,,0.00,WUHU216HW,2013-10-09 16:43:00,
2013-10-09 12:48:00,58.3,47.8,29.70,South,180,3.0,3.8,68,0.00,,,0.00,WUHU216HW,2013-10-09 16:48:00,
2013-10-09 12:53:00,58.7,48.2,29.70,ESE,113,1.0,3.8,68,0.00,,,0.00,WUHU216HW,2013-10-09 16:53:00,
2013-10-09 12:58:00,58.7,48.2,29.70,SE,135,1.3,3.3,68,0.00,,,0.00,WUHU216HW,2013-10-09 16:58:00,
2013-10-09 13:03:00,58.9,47.9,29.70,NE,45,0.6,1.9,67,0.00,,,0.00,WUHU216HW,2013-10-09 17:03:00,
2013-10-09 13:08:00,58.7,47.7,29.70,SSE,158,2.1,4.1,67,0.00,,,0.00,WUHU216HW,2013-10-09 17:08:00,
2013-10-09 13:13:00,58.9,48.3,29.70,ENE,68,0.0,4.1,68,0.00,,,0.00,WUHU216HW,2013-10-09 17:13:00,
2013-10-09 13:18:00,59.0,48.5,29.69,SSE,158,2.4,4.4,68,0.00,,,0.00,WUHU216HW,2013-10-09 17:18:00,
2013-10-09 13:23:00,59.2,48.2,29.69,SSE,158,1.3,4.4,67,0.00,,,0.00,WUHU216HW,2013-10-09 17:23:00,
2013-10-09 13:28:00,59.2,48.2,29.69,NE,45,0.0,2.4,67,0.00,,,0.00,WUHU216HW,2013-10-09 17:28:00,
2013-10-09 13:33:00,59.4,48.4,29.69,NE,45,0.9,1.3,67,0.00,,,0.00,WUHU216HW,2013-10-09 17:33:00,
2013-10-09 13:38:00,59.4,48.4,29.69,SE,135,1.7,1.7,67,0.00,,,0.00,WUHU216HW,2013-10-09 17:38:00,
2013-10-09 13:43:00,59.4,48.1,29.69,ENE,68,0.6,1.9,66,0.00,,,0.00,WUHU216HW,2013-10-09 17:43:00,
2013-10-09 13:48:00,59.4,48.1,29.69,SE,135,1.0,1.9,66,0.00,,,0.00,WUHU216HW,2013-10-09 17:48:00,
2013-10-09 13:53:00,59.2,47.4,29.68,SSE,160,1.2,1.7,65,0.00,,,0.00,WUHU216HW,2013-10-09 17:53:00,
2013-10-09 13:58:00,59.4,47.6,29.68,SE,141,1.1,1.7,65,0.00,,,0.00,WUHU216HW,2013-10-09 17:58:00,
2013-10-09 14:03:00,59.4,47.6,29.68,ESE,113,0.3,1.9,65,0.00,,,0.00,WUHU216HW,2013-10-09 18:03:00,
2013-10-09 14:08:00,59.6,47.3,29.68,South,180,1.7,1.9,64,0.00,,,0.00,WUHU216HW,2013-10-09 18:08:00,
2013-10-09 14:13:00,59.8,47.5,29.68,SE,129,1.1,2.7,64,0.00,,,0.00,WUHU216HW,2013-10-09 18:13:00,
2013-10-09 14:18:00,59.8,47.2,29.68,SE,132,1.2,2.7,63,0.00,,,0.00,WUHU216HW,2013-10-09 18:18:00,
2013-10-09 14:23:00,59.9,47.7,29.67,SE,146,2.3,2.7,64,0.00,,,0.00,WUHU216HW,2013-10-09 18:23:00,
2013-10-09 14:28:00,60.1,48.3,29.67,NE,45,0.6,2.7,65,0.00,,,0.00,WUHU216HW,2013-10-09 18:28:00,
2013-10-09 14:33:00,60.1,47.1,29.67,NNE,23,1.4,1.7,62,0.00,,,0.00,WUHU216HW,2013-10-09 18:33:00,
2013-10-09 14:38:00,60.1,47.5,29.67,SSE,158,0.6,1.7,63,0.00,,,0.00,WUHU216HW,2013-10-09 18:38:00,
2013-10-09 14:43:00,60.1,47.5,29.67,SE,135,0.3,1.3,63,0.00,,,0.00,WUHU216HW,2013-10-09 18:43:00,
2013-10-09 14:48:00,60.3,47.7,29.67,ESE,107,0.3,1.3,63,0.00,,,0.00,WUHU216HW,2013-10-09 18:48:00,
2013-10-09 14:53:00,60.3,47.3,29.66,SE,136,1.8,3.3,62,0.00,,,0.00,WUHU216HW,2013-10-09 18:53:00,
2013-10-09 14:58:00,60.3,46.9,29.66,SE,135,2.4,3.3,61,0.00,,,0.00,WUHU216HW,2013-10-09 18:58:00,
2013-10-09 15:03:00,60.3,46.4,29.66,SSE,158,2.7,3.3,60,0.00,,,0.00,WUHU216HW,2013-10-09 19:03:00,
2013-10-09 15:08:00,60.1,45.8,29.66,SE,135,1.3,3.3,59,0.00,,,0.00,WUHU216HW,2013-10-09 19:08:00,
2013-10-09 15:13:00,60.1,46.3,29.66,NNW,338,0.3,3.0,60,0.00,,,0.00,WUHU216HW,2013-10-09 19:13:00,
2013-10-09 15:18:00,60.1,46.3,29.66,SSE,158,2.7,2.7,60,0.00,,,0.00,WUHU216HW,2013-10-09 19:18:00,
2013-10-09 15:23:00,60.1,46.3,29.66,SE,146,1.1,2.7,60,0.00,,,0.00,WUHU216HW,2013-10-09 19:23:00,
2013-10-09 15:28:00,60.1,45.3,29.66,ENE,68,0.6,2.7,58,0.00,,,0.00,WUHU216HW,2013-10-09 19:28:00,
2013-10-09 15:33:00,59.9,45.1,29.66,SE,135,1.7,1.9,58,0.00,,,0.00,WUHU216HW,2013-10-09 19:33:00,
2013-10-09 15:38:00,59.9,45.6,29.66,ENE,68,0.0,1.7,59,0.00,,,0.00,WUHU216HW,2013-10-09 19:38:00,
2013-10-09 15:43:00,59.8,44.9,29.66,ENE,68,0.3,1.7,58,0.00,,,0.00,WUHU216HW,2013-10-09 19:43:00,
2013-10-09 15:48:00,59.8,45.5,29.66,North,0,0.6,0.6,59,0.00,,,0.00,WUHU216HW,2013-10-09 19:48:00,
2013-10-09 15:53:00,59.6,44.3,29.66,SSE,153,1.4,1.7,57,0.00,,,0.00,WUHU216HW,2013-10-09 19:53:00,
2013-10-09 15:58:00,59.4,44.7,29.66,East,90,0.3,1.7,58,0.00,,,0.00,WUHU216HW,2013-10-09 19:58:00,
2013-10-09 16:03:00,59.4,44.7,29.66,ENE,71,0.5,1.0,58,0.00,,,0.00,WUHU216HW,2013-10-09 20:03:00,
2013-10-09 16:08:00,59.4,45.1,29.66,NE,45,0.0,1.0,59,0.00,,,0.00,WUHU216HW,2013-10-09 20:08:00,
2013-10-09 16:13:00,59.2,44.9,29.66,ESE,113,0.3,1.0,59,0.00,,,0.00,WUHU216HW,2013-10-09 20:13:00,
2013-10-09 16:18:00,59.2,44.9,29.66,NNW,338,0.3,1.0,59,0.00,,,0.00,WUHU216HW,2013-10-09 20:18:00,
2013-10-09 16:23:00,59.2,44.5,29.66,North,0,0.6,1.0,58,0.00,,,0.00,WUHU216HW,2013-10-09 20:23:00,
2013-10-09 16:28:00,59.2,44.9,29.66,SE,135,0.5,1.3,59,0.00,,,0.00,WUHU216HW,2013-10-09 20:28:00,
2013-10-09 16:33:00,59.0,44.7,29.66,ESE,113,0.0,1.3,59,0.00,,,0.00,WUHU216HW,2013-10-09 20:33:00,
2013-10-09 16:38:00,59.0,44.3,29.66,North,0,0.0,0.6,58,0.00,,,0.00,WUHU216HW,2013-10-09 20:38:00,
2013-10-09 16:43:00,58.9,44.1,29.66,North,0,0.0,1.0,58,0.00,,,0.00,WUHU216HW,2013-10-09 20:43:00,
2013-10-09 16:48:00,58.7,43.9,29.66,North,0,0.4,1.0,58,0.00,,,0.00,WUHU216HW,2013-10-09 20:48:00,
2013-10-09 16:53:00,58.7,43.9,29.65,North,0,0.3,0.6,58,0.00,,,0.00,WUHU216HW,2013-10-09 20:53:00,
2013-10-09 16:58:00,58.5,43.7,29.66,North,0,0.0,0.3,58,0.00,,,0.00,WUHU216HW,2013-10-09 20:58:00,
2013-10-09 17:03:00,58.3,43.6,29.66,North,0,0.3,0.6,58,0.00,,,0.00,WUHU216HW,2013-10-09 21:03:00,
2013-10-09 17:08:00,58.1,43.5,29.66,North,0,0.0,0.6,58,0.00,,,0.00,WUHU216HW,2013-10-09 21:08:00,
2013-10-09 17:13:00,58.1,43.5,29.66,North,0,0.0,0.0,58,0.00,,,0.00,WUHU216HW,2013-10-09 21:13:00,
2013-10-09 17:18:00,58.0,43.3,29.66,North,0,0.0,0.0,58,0.00,,,0.00,WUHU216HW,2013-10-09 21:18:00,
2013-10-09 17:23:00,57.8,43.1,29.65,North,0,0.0,0.3,58,0.00,,,0.00,WUHU216HW,2013-10-09 21:23:00,
2013-10-09 17:28:00,57.8,43.1,29.65,North,0,0.0,0.3,58,0.00,,,0.00,WUHU216HW,2013-10-09 21:28:00,
2013-10-09 17:33:00,57.6,42.9,29.66,ENE,68,0.0,0.3,58,0.00,,,0.00,WUHU216HW,2013-10-09 21:33:00,
2013-10-09 17:38:00,57.6,42.9,29.65,ENE,68,0.0,0.3,58,0.00,,,0.00,WUHU216HW,2013-10-09 21:38:00,
2013-10-09 17:43:00,57.2,43.1,29.65,ENE,68,0.0,0.0,59,0.00,,,0.00,WUHU216HW,2013-10-09 21:43:00,
2013-10-09 17:48:00,57.2,43.1,29.65,ENE,68,0.0,0.0,59,0.00,,,0.00,WUHU216HW,2013-10-09 21:48:00,
2013-10-09 17:53:00,57.2,43.1,29.65,ENE,68,0.0,0.0,59,0.00,,,0.00,WUHU216HW,2013-10-09 21:53:00,
2013-10-09 17:58:00,56.9,42.8,29.65,North,0,0.0,0.0,59,0.00,,,0.00,WUHU216HW,2013-10-09 21:58:00,
2013-10-09 18:03:00,56.7,43.0,29.65,NNW,338,0.0,0.0,60,0.00,,,0.00,WUHU216HW,2013-10-09 22:03:00,
2013-10-09 18:08:00,56.3,43.0,29.65,NNW,338,0.6,0.6,61,0.00,,,0.00,WUHU216HW,2013-10-09 22:08:00,
2013-10-09 18:13:00,56.2,42.9,29.65,NW,315,1.0,1.0,61,0.00,,,0.00,WUHU216HW,2013-10-09 22:13:00,
2013-10-09 18:18:00,55.8,42.9,29.65,NW,315,0.6,1.0,62,0.00,,,0.00,WUHU216HW,2013-10-09 22:18:00,
2013-10-09 18:23:00,55.6,42.8,29.64,NW,315,0.5,1.0,62,0.00,,,0.00,WUHU216HW,2013-10-09 22:23:00,
2013-10-09 18:28:00,55.4,42.6,29.64,WNW,293,0.9,1.7,62,0.00,,,0.00,WUHU216HW,2013-10-09 22:28:00,
2013-10-09 18:33:00,55.3,42.9,29.64,NW,315,0.6,1.7,63,0.00,,,0.00,WUHU216HW,2013-10-09 22:33:00,
2013-10-09 18:38:00,55.3,42.4,29.64,NW,315,0.6,0.6,62,0.00,,,0.00,WUHU216HW,2013-10-09 22:38:00,
2013-10-09 18:43:00,55.3,42.4,29.64,NW,315,0.0,0.6,62,0.00,,,0.00,WUHU216HW,2013-10-09 22:43:00,
2013-10-09 18:48:00,55.3,42.9,29.64,NW,315,0.0,0.0,63,0.00,,,0.00,WUHU216HW,2013-10-09 22:48:00,
2013-10-09 18:53:00,55.1,42.7,29.64,NW,315,0.0,0.0,63,0.00,,,0.00,WUHU216HW,2013-10-09 22:53:00,
2013-10-09 18:58:00,55.1,42.7,29.64,West,270,0.0,0.0,63,0.00,,,0.00,WUHU216HW,2013-10-09 22:58:00,
2013-10-09 19:03:00,55.1,42.7,29.64,West,270,0.0,0.0,63,0.00,,,0.00,WUHU216HW,2013-10-09 23:03:00,
2013-10-09 19:08:00,55.1,42.7,29.64,West,270,0.0,0.0,63,0.00,,,0.00,WUHU216HW,2013-10-09 23:08:00,
2013-10-09 19:13:00,54.7,42.8,29.64,West,270,0.0,0.0,64,0.00,,,0.00,WUHU216HW,2013-10-09 23:13:00,
2013-10-09 19:18:00,54.5,42.6,29.64,NW,315,0.0,0.0,64,0.00,,,0.00,WUHU216HW,2013-10-09 23:18:00,
2013-10-09 19:23:00,54.5,42.6,29.64,NW,315,0.0,0.0,64,0.00,,,0.00,WUHU216HW,2013-10-09 23:23:00,
2013-10-09 19:28:00,54.4,42.4,29.64,NW,315,0.0,0.0,64,0.00,,,0.00,WUHU216HW,2013-10-09 23:28:00,
2013-10-09 19:33:00,54.4,42.9,29.64,NW,315,0.0,0.0,65,0.00,,,0.00,WUHU216HW,2013-10-09 23:33:00,
2013-10-09 19:38:00,54.4,43.2,29.65,NW,315,0.0,0.0,66,0.00,,,0.00,WUHU216HW,2013-10-09 23:38:00,
2013-10-09 19:43:00,54.2,43.0,29.65,NW,315,0.3,0.3,66,0.00,,,0.00,WUHU216HW,2013-10-09 23:43:00,
2013-10-09 19:48:00,54.0,42.8,29.65,NW,315,0.0,0.3,66,0.00,,,0.00,WUHU216HW,2013-10-09 23:48:00,
2013-10-09 19:53:00,53.8,42.7,29.65,NW,315,0.5,0.6,66,0.00,,,0.00,WUHU216HW,2013-10-09 23:53:00,
2013-10-09 19:58:00,53.6,42.9,29.65,NW,315,0.6,0.6,67,0.00,,,0.00,WUHU216HW,2013-10-09 23:58:00,
2013-10-09 20:03:00,53.6,42.9,29.65,NW,315,0.0,0.6,67,0.00,,,0.00,WUHU216HW,2013-10-10 00:03:00,
2013-10-09 20:08:00,53.6,43.3,29.65,NW,315,0.0,0.6,68,0.00,,,0.00,WUHU216HW,2013-10-10 00:08:00,
2013-10-09 20:13:00,53.6,43.3,29.65,NW,315,0.0,0.0,68,0.00,,,0.00,WUHU216HW,2013-10-10 00:13:00,
2013-10-09 20:18:00,53.6,43.3,29.65,NW,315,0.6,0.6,68,0.00,,,0.00,WUHU216HW,2013-10-10 00:18:00,
2013-10-09 20:23:00,53.5,43.1,29.66,NW,315,0.0,0.6,68,0.00,,,0.00,WUHU216HW,2013-10-10 00:23:00,
2013-10-09 20:28:00,53.6,43.8,29.65,WNW,293,0.6,0.6,69,0.00,,,0.00,WUHU216HW,2013-10-10 00:28:00,
2013-10-09 20:33:00,53.5,43.6,29.66,WNW,293,0.0,0.6,69,0.00,,,0.00,WUHU216HW,2013-10-10 00:33:00,
2013-10-09 20:38:00,53.5,43.6,29.65,WNW,293,0.3,0.6,69,0.00,,,0.00,WUHU216HW,2013-10-10 00:38:00,
2013-10-09 20:43:00,53.5,43.6,29.65,WNW,293,0.0,0.3,69,0.00,,,0.00,WUHU216HW,2013-10-10 00:43:00,
2013-10-09 20:48:00,53.5,43.6,29.66,WNW,293,0.0,0.3,69,0.00,,,0.00,WUHU216HW,2013-10-10 00:48:00,
2013-10-09 20:53:00,53.5,43.6,29.66,WNW,293,0.0,0.0,69,0.00,,,0.00,WUHU216HW,2013-10-10 00:53:00,
2013-10-09 20:58:00,53.5,43.6,29.65,WNW,293,0.0,0.0,69,0.00,,,0.00,WUHU216HW,2013-10-10 00:58:00,
2013-10-09 21:03:00,53.5,43.6,29.65,WNW,293,0.0,0.0,69,0.00,,,0.00,WUHU216HW,2013-10-10 01:03:00,
2013-10-09 21:08:00,53.5,43.6,29.66,NW,315,0.0,0.0,69,0.00,,,0.00,WUHU216HW,2013-10-10 01:08:00,
2013-10-09 21:13:00,53.5,43.9,29.65,NW,315,0.0,0.0,70,0.00,,,0.00,WUHU216HW,2013-10-10 01:13:00,
2013-10-09 21:18:00,53.3,44.1,29.65,NW,315,0.6,0.6,71,0.00,,,0.00,WUHU216HW,2013-10-10 01:18:00,
2013-10-09 21:23:00,53.3,44.1,29.65,WNW,293,0.6,0.6,71,0.00,,,0.00,WUHU216HW,2013-10-10 01:23:00,
2013-10-09 21:28:00,53.3,44.1,29.65,WNW,293,0.0,1.0,71,0.00,,,0.00,WUHU216HW,2013-10-10 01:28:00,
2013-10-09 21:33:00,53.3,44.1,29.65,WNW,293,0.5,1.0,71,0.00,,,0.00,WUHU216HW,2013-10-10 01:33:00,
2013-10-09 21:38:00,53.3,44.1,29.65,WNW,293,0.0,0.6,71,0.00,,,0.00,WUHU216HW,2013-10-10 01:38:00,
2013-10-09 21:43:00,53.3,44.1,29.65,WNW,293,0.0,0.0,71,0.00,,,0.00,WUHU216HW,2013-10-10 01:43:00,
2013-10-09 21:48:00,53.3,44.1,29.65,WNW,293,0.0,0.0,71,0.00,,,0.00,WUHU216HW,2013-10-10 01:48:00,
2013-10-09 21:53:00,53.3,44.5,29.65,WNW,293,0.5,0.6,72,0.00,,,0.00,WUHU216HW,2013-10-10 01:53:00,
2013-10-09 21:58:00,53.3,44.5,29.65,WNW,293,0.0,0.6,72,0.00,,,0.00,WUHU216HW,2013-10-10 01:58:00,
2013-10-09 22:03:00,53.3,44.5,29.65,WNW,293,0.3,0.6,72,0.00,,,0.00,WUHU216HW,2013-10-10 02:03:00,
2013-10-09 22:08:00,53.3,44.5,29.65,WNW,293,0.0,0.3,72,0.00,,,0.00,WUHU216HW,2013-10-10 02:08:00,
2013-10-09 22:13:00,53.3,44.1,29.65,WNW,293,0.0,0.0,71,0.00,,,0.00,WUHU216HW,2013-10-10 02:13:00,
2013-10-09 22:18:00,53.3,44.5,29.65,WNW,293,0.0,0.0,72,0.00,,,0.00,WUHU216HW,2013-10-10 02:18:00,
2013-10-09 22:23:00,53.3,44.5,29.65,WNW,293,0.0,0.0,72,0.00,,,0.00,WUHU216HW,2013-10-10 02:23:00,
2013-10-09 22:28:00,53.3,44.5,29.65,WNW,293,0.0,0.0,72,0.00,,,0.00,WUHU216HW,2013-10-10 02:28:00,
2013-10-09 22:33:00,53.5,44.6,29.65,WNW,293,0.0,0.0,72,0.00,,,0.00,WUHU216HW,2013-10-10 02:33:00,
2013-10-09 22:38:00,53.5,45.0,29.65,WNW,293,0.0,0.0,73,0.00,,,0.00,WUHU216HW,2013-10-10 02:38:00,
2013-10-09 22:43:00,53.3,44.8,29.65,WNW,293,0.0,0.0,73,0.00,,,0.00,WUHU216HW,2013-10-10 02:43:00,
2013-10-09 22:48:00,53.3,44.5,29.65,WNW,293,0.0,0.0,72,0.00,,,0.00,WUHU216HW,2013-10-10 02:48:00,
2013-10-09 22:53:00,53.1,44.3,29.65,NW,315,0.0,0.0,72,0.00,,,0.00,WUHU216HW,2013-10-10 02:53:00,
2013-10-09 22:58:00,53.1,44.6,29.65,NW,315,0.0,0.0,73,0.00,,,0.00,WUHU216HW,2013-10-10 02:58:00,
2013-10-09 23:03:00,52.9,44.6,29.65,NW,315,0.0,0.6,73,0.00,,,0.00,WUHU216HW,2013-10-10 03:03:00,
2013-10-09 23:08:00,52.7,45.0,29.65,NW,315,0.5,0.6,75,0.00,,,0.00,WUHU216HW,2013-10-10 03:08:00,
2013-10-09 23:13:00,52.6,44.9,29.65,NW,315,0.4,0.6,75,0.00,,,0.00,WUHU216HW,2013-10-10 03:13:00,
2013-10-09 23:18:00,52.4,45.1,29.65,WNW,293,0.6,0.6,76,0.00,,,0.00,WUHU216HW,2013-10-10 03:18:00,
2013-10-09 23:23:00,52.2,44.9,29.64,NW,308,0.3,0.6,76,0.00,,,0.00,WUHU216HW,2013-10-10 03:23:00,
2013-10-09 23:28:00,52.2,45.2,29.64,NW,315,0.6,0.6,77,0.00,,,0.00,WUHU216HW,2013-10-10 03:28:00,
2013-10-09 23:33:00,51.8,45.2,29.64,NW,315,0.0,0.6,78,0.00,,,0.00,WUHU216HW,2013-10-10 03:33:00,
2013-10-09 23:38:00,51.7,45.4,29.64,WNW,298,0.8,1.3,79,0.00,,,0.00,WUHU216HW,2013-10-10 03:38:00,
2013-10-09 23:43:00,51.7,45.0,29.64,WNW,293,0.6,1.3,78,0.00,,,0.00,WUHU216HW,2013-10-10 03:43:00,
2013-10-09 23:48:00,51.5,44.8,29.64,WNW,293,0.0,1.0,78,0.00,,,0.00,WUHU216HW,2013-10-10 03:48:00,
2013-10-09 23:53:00,51.5,44.8,29.64,WNW,293,0.0,0.6,78,0.00,,,0.00,WUHU216HW,2013-10-10 03:53:00,
2013-10-09 23:58:00,51.5,44.8,29.64,WNW,293,0.0,0.3,78,0.00,,,0.00,WUHU216HW,2013-10-10 03:58:00,